Weather History for KSBP - October, 2012

Change the Weather History Date:

Saturday, October 6, 2012

  Actual Average Record
Temperature  
Mean Temperature 67 °F -  
Max Temperature 79 °F 78 °F 100 °F (1971)
Min Temperature 55 °F 51 °F 42 °F (1962)
Cooling Degree Days 2    
Growing Degree Days 17 (Base 50)    
Moisture  
Dew Point 53 °F    
Average Humidity 68    
Maximum Humidity 87    
Minimum Humidity 42    
Precipitation  
Precipitation 0.00 in - - ()
Sea Level Pressure  
Sea Level Pressure 29.96 in    
Wind  
Wind Speed 6 mph (NNW)    
Max Wind Speed 21 mph    
Max Gust Speed 26 mph    
Visibility 10 miles    
Events      
Averages and records for this station are not official NWS values.
T = Trace of Precipitation, MM = Missing Value Source: NWS Daily Summary

Daily Weather History Graph

Daily Weather History Graph

Search for Another Location

Airport or City:

Trip Planner

Search our weather history database for the weather conditions in past years. The results will help you decide how hot, cold, wet, or windy it might be!

Date:

Astronomy

Oct. 06, 2012 Rise Set
Actual Time 7:01 AM PDT 6:38 PM PDT
Civil Twilight 6:36 AM PDT 7:03 PM PDT
Nautical Twilight 6:06 AM PDT 7:33 PM PDT
Astronomical Twilight 5:37 AM PDT 8:02 PM PDT
Moon 11:08 PM PDT (10/6) 12:50 PM PDT (10/6)
Length of Visible Light 12h 27m
Length of Day
11h 36m
Waning Gibbous, 64% of the Moon is Illuminated
Oct 6
Waning Gibbous
Oct 8
Last Quarter
Oct 15
New
Oct 21
First Quarter
Oct 29
Full

Hourly Weather History & Observations

Time (PDT) Temp. Dew Point Humidity Pressure Visibility Wind Dir Wind Speed Gust Speed Precip Events Conditions
12:56 AM 60.1 °F 54.0 °F 80% 30.02 in 10.0 mi Calm Calm - N/A   Clear
1:56 AM 59.0 °F 55.0 °F 87% 30.01 in 10.0 mi Calm Calm - N/A   Clear
2:56 AM 57.0 °F 52.0 °F 83% 30.00 in 10.0 mi Calm Calm - N/A   Clear
3:56 AM 55.9 °F 52.0 °F 87% 29.99 in 10.0 mi Calm Calm - N/A   Clear
4:56 AM 55.9 °F 51.1 °F 84% 29.99 in 10.0 mi Calm Calm - N/A   Clear
5:56 AM 55.0 °F 51.1 °F 86% 29.99 in 10.0 mi ESE 3.5 mph - N/A   Clear
6:56 AM 55.0 °F 51.1 °F 86% 30.00 in 10.0 mi SE 3.5 mph - N/A   Clear
7:56 AM 57.0 °F 53.1 °F 87% 30.00 in 10.0 mi SE 3.5 mph - N/A   Clear
8:56 AM 62.1 °F 54.0 °F 75% 30.01 in 10.0 mi Calm Calm - N/A   Clear
9:56 AM 70.0 °F 53.1 °F 55% 30.00 in 10.0 mi Calm Calm - N/A   Scattered Clouds
10:56 AM 75.9 °F 53.1 °F 45% 29.98 in 10.0 mi Calm Calm - N/A   Clear
11:56 AM 79.0 °F 54.0 °F 42% 29.96 in 10.0 mi NW 12.7 mph - N/A   Clear
12:56 PM 78.1 °F 54.0 °F 43% 29.95 in 10.0 mi NW 20.7 mph - N/A   Clear
1:56 PM 77.0 °F 55.0 °F 47% 29.93 in 10.0 mi NW 20.7 mph - N/A   Clear
2:56 PM 75.9 °F 54.0 °F 46% 29.92 in 10.0 mi NNW 20.7 mph 26.5 mph N/A   Clear
3:56 PM 73.0 °F 53.1 °F 49% 29.91 in 10.0 mi NW 19.6 mph - N/A   Clear
4:56 PM 72.0 °F 51.1 °F 48% 29.91 in 10.0 mi NNW 20.7 mph - N/A   Clear
5:56 PM 68.0 °F 51.1 °F 55% 29.90 in 10.0 mi NW 20.7 mph 26.5 mph N/A   Clear
6:56 PM 64.0 °F 52.0 °F 65% 29.91 in 10.0 mi NW 15.0 mph - N/A   Clear
7:56 PM 63.0 °F 52.0 °F 67% 29.92 in 10.0 mi NNW 13.8 mph - N/A   Clear
8:56 PM 61.0 °F 53.1 °F 75% 29.93 in 10.0 mi NW 13.8 mph - N/A   Clear
9:56 PM 60.1 °F 54.0 °F 80% 29.94 in 10.0 mi North 10.4 mph - N/A   Clear
10:56 PM 60.1 °F 53.1 °F 78% 29.94 in 10.0 mi North 10.4 mph 26.5 mph N/A   Clear
11:56 PM 59.0 °F 53.1 °F 81% 29.94 in 10.0 mi North 4.6 mph - N/A   Clear